Date String (YYYY-MM-DD hh:mm:ss) UTC,Instrument flags,Ambient pressure (hPa),Sample flow (lpm),Bypass flow (lpm),Sample temperature (°C),Ambient temperature (°C),ASC tube jacket temperature (°C),LED temperature (°C),Box temperature (°C),Sample RH (%),Span deviation,Mass concentration (μg/m³),Mass concentration (μg/m³),Mass concentration (μg/m³)
DateTimeUTC,F1_M11,P_M11,Q1_M11,Q2_M11,T1_M11,T2_M11,T3_M11,T4_M11,T5_M11,U1_M11,ZSPAN_M11,X0_M11,X2_M11,X1_M11
2022-08-30 19:00:00,,0833.5,4.99,0.00,29.4,28.2,00.0,38.0,31.3,26.3,0000.0,0024.43,0007.80,0006.08
2022-08-30 19:01:00,,0833.6,5.00,0.00,29.4,28.2,00.0,38.0,31.4,25.7,0000.0,0023.76,0007.76,0006.08
2022-08-30 19:02:00,,0833.5,5.00,0.00,29.4,27.2,00.0,38.0,31.2,25.3,0000.0,0022.71,0007.70,0006.07
2022-08-30 19:03:00,,0833.5,4.99,0.00,29.3,26.5,00.0,38.0,31.1,25.8,0000.0,0023.12,0007.63,0006.06
2022-08-30 19:04:00,,0833.5,5.00,0.00,29.3,26.6,00.0,37.9,31.1,26.8,0000.0,0022.93,0007.59,0006.05
2022-08-30 19:05:00,,0833.5,5.00,0.00,29.3,26.9,00.0,37.9,31.0,26.2,0000.0,0022.53,0007.66,0006.05
2022-08-30 19:06:00,,0833.5,5.00,0.00,29.2,27.2,00.0,37.9,31.0,26.5,0000.0,0022.32,0007.61,0006.05
2022-08-30 19:07:00,,0833.4,5.00,0.00,29.2,27.5,00.0,37.9,31.1,26.6,0000.0,0022.52,0007.53,0006.04
2022-08-30 19:08:00,,0833.4,5.01,0.00,29.3,27.7,00.0,37.9,31.1,26.9,0000.0,0022.18,0007.49,0006.03
2022-08-30 19:09:00,,0833.4,5.01,0.00,29.3,28.0,00.0,37.9,31.2,26.4,0000.0,0022.07,0007.51,0006.02
2022-08-30 19:10:00,,0833.4,4.99,0.00,29.3,28.2,00.0,37.9,31.3,26.1,0000.0,0022.32,0007.53,0006.03
2022-08-30 19:11:00,,0833.4,5.00,0.00,29.4,28.4,00.0,38.0,31.3,26.1,0000.0,0021.56,0007.58,0006.01
2022-08-30 19:12:00,,0833.4,4.99,0.00,29.4,28.0,00.0,38.0,31.3,26.0,0000.0,0021.19,0007.61,0006.01
2022-08-30 19:13:00,,0833.5,5.01,0.00,29.4,26.9,00.0,38.0,31.2,26.2,0000.0,0022.41,0007.60,0006.01
2022-08-30 19:14:00,,0833.3,4.99,0.00,29.3,26.4,00.0,37.9,31.1,26.3,0000.0,0021.93,0007.69,0006.01
2022-08-30 19:15:00,,0833.3,5.00,0.00,29.3,26.6,00.0,37.9,31.1,26.4,0000.0,0021.96,0007.77,0006.02
2022-08-30 19:16:00,,0833.3,5.01,0.00,29.2,26.9,00.0,37.9,31.0,26.5,0000.0,0022.32,0007.77,0006.01
2022-08-30 19:17:00,,0833.3,5.00,0.00,29.2,27.2,00.0,37.9,31.0,26.0,0000.0,0021.53,0007.73,0005.99
2022-08-30 19:18:00,,0833.3,5.00,0.00,29.2,27.5,00.0,37.9,31.1,26.0,0000.0,0021.80,0007.73,0005.97
2022-08-30 19:19:00,,0833.3,5.01,0.00,29.3,27.8,00.0,37.9,31.2,25.9,0000.0,0022.04,0007.69,0005.96
2022-08-30 19:20:00,,0833.1,4.98,0.00,29.3,28.0,00.0,37.9,31.2,25.7,0000.0,0021.72,0007.61,0005.94
2022-08-30 19:21:00,,0833.2,5.00,0.00,29.3,28.2,00.0,37.9,31.3,25.8,0000.0,0021.24,0007.61,0005.93
2022-08-30 19:22:00,,0833.2,5.01,0.00,29.4,28.4,00.0,38.0,31.4,25.6,0000.0,0021.24,0007.61,0005.92
2022-08-30 19:23:00,,0833.1,5.01,0.00,29.4,27.7,00.0,38.0,31.3,26.7,0000.0,0021.42,0007.60,0005.90
2022-08-30 19:24:00,,0833.1,5.00,0.00,29.4,26.6,00.0,38.0,31.2,27.1,0000.0,0021.44,0007.65,0005.91
2022-08-30 19:25:00,,0833.2,5.01,0.00,29.3,26.6,00.0,37.9,31.2,27.0,0000.0,0022.69,0007.65,0005.92
2022-08-30 19:26:00,,0833.1,4.98,0.00,29.3,26.8,00.0,37.9,31.1,26.9,0000.0,0022.33,0007.59,0005.92
2022-08-30 19:27:00,,0833.2,5.01,0.00,29.3,27.1,00.0,37.9,31.0,26.9,0000.0,0022.08,0007.56,0005.92
2022-08-30 19:28:00,,0833.1,5.00,0.00,29.3,27.4,00.0,37.9,31.1,27.0,0000.0,0021.52,0007.54,0005.93
2022-08-30 19:29:00,,0833.1,5.00,0.00,29.3,27.7,00.0,37.9,31.1,26.9,0000.0,0020.09,0007.53,0005.95
2022-08-30 19:30:00,,0833.1,5.01,0.00,29.3,28.0,00.0,37.9,31.2,26.6,0000.0,0019.95,0007.57,0005.96
2022-08-30 19:31:00,,0833.1,5.00,0.00,29.3,28.2,00.0,37.9,31.3,26.7,0000.0,0019.78,0007.59,0005.98
2022-08-30 19:32:00,,0833.1,4.99,0.00,29.4,28.3,00.0,37.9,31.3,26.4,0000.0,0020.23,0007.64,0005.99
2022-08-30 19:33:00,,0833.0,5.00,0.00,29.4,27.7,00.0,38.0,31.3,26.5,0000.0,0020.56,0007.62,0006.01
2022-08-30 19:34:00,,0833.1,5.01,0.00,29.4,26.7,00.0,37.9,31.1,26.6,0000.0,0020.85,0007.65,0006.02
2022-08-30 19:35:00,,0833.0,5.01,0.00,29.3,26.5,00.0,37.9,31.1,27.7,0000.0,0020.17,0007.67,0006.00
2022-08-30 19:36:00,,0833.1,4.99,0.00,29.3,26.8,00.0,37.9,31.0,27.5,0000.0,0019.16,0007.66,0006.00
2022-08-30 19:37:00,,0833.1,4.99,0.00,29.2,27.0,00.0,37.9,31.0,27.5,0000.0,0019.71,0007.62,0006.00
2022-08-30 19:38:00,,0833.0,5.01,0.00,29.2,27.3,00.0,37.8,31.0,27.7,0000.0,0021.39,0007.67,0006.00
2022-08-30 19:39:00,,0833.0,5.00,0.00,29.2,27.6,00.0,37.9,31.1,26.4,0000.0,0022.32,0007.71,0006.01
2022-08-30 19:40:00,,0833.1,5.01,0.00,29.3,27.9,00.0,37.9,31.2,25.5,0000.0,0022.50,0007.67,0005.98
2022-08-30 19:41:00,,0833.0,4.99,0.00,29.3,28.1,00.0,37.9,31.2,25.1,0000.0,0023.39,0007.67,0005.96
2022-08-30 19:42:00,,0833.0,4.99,0.00,29.4,28.3,00.0,37.9,31.3,25.2,0000.0,0023.61,0007.64,0005.93
2022-08-30 19:43:00,,0832.9,4.99,0.00,29.4,27.9,00.0,37.9,31.3,25.3,0000.0,0023.74,0007.53,0005.90
2022-08-30 19:44:00,,0832.9,5.00,0.00,29.4,26.8,00.0,37.9,31.2,25.8,0000.0,0024.07,0007.48,0005.88
2022-08-30 19:45:00,,0832.9,5.00,0.00,29.3,26.5,00.0,37.9,31.2,26.4,0000.0,0024.86,0007.44,0005.87
2022-08-30 19:46:00,,0832.8,5.00,0.00,29.3,26.7,00.0,37.9,31.0,25.9,0000.0,0024.89,0007.35,0005.86
2022-08-30 19:47:00,,0832.8,5.00,0.00,29.2,27.0,00.0,37.8,30.9,25.7,0000.0,0024.60,0007.29,0005.83
2022-08-30 19:48:00,,0832.8,4.99,0.00,29.2,27.3,00.0,37.8,31.0,25.6,0000.0,0023.43,0007.26,0005.79
2022-08-30 19:49:00,,0832.8,5.00,0.00,29.2,27.6,00.0,37.9,31.1,25.3,0000.0,0021.44,0007.12,0005.75
2022-08-30 19:50:00,,0832.9,5.00,0.00,29.3,27.9,00.0,37.9,31.1,25.8,0000.0,0021.13,0007.07,0005.73
2022-08-30 19:51:00,,0832.8,5.01,0.00,29.3,28.1,00.0,37.9,31.2,26.0,0000.0,0021.51,0007.15,0005.74
2022-08-30 19:52:00,,0832.9,5.00,0.00,29.3,28.3,00.0,37.9,31.3,26.1,0000.0,0021.07,0007.15,0005.74
2022-08-30 19:53:00,,0832.8,4.99,0.00,29.4,28.4,00.0,37.9,31.4,25.8,0000.0,0021.54,0007.22,0005.76
2022-08-30 19:54:00,,0832.8,4.99,0.00,29.4,27.6,00.0,38.0,31.3,25.5,0000.0,0021.48,0007.29,0005.78
2022-08-30 19:55:00,,0832.8,5.02,0.00,29.4,26.6,00.0,37.9,31.2,26.4,0000.0,0021.70,0007.32,0005.79
2022-08-30 19:56:00,,0832.8,4.99,0.00,29.3,26.5,00.0,37.9,31.1,26.3,0000.0,0020.13,0007.30,0005.79
2022-08-30 19:57:00,,0832.8,5.00,0.00,29.3,26.8,00.0,37.9,31.0,26.3,0000.0,0019.90,0007.31,0005.80
2022-08-30 19:58:00,,0832.8,5.00,0.00,29.3,27.1,00.0,37.9,31.0,26.1,0000.0,0019.53,0007.33,0005.82
2022-08-30 19:59:00,,0832.8,5.00,0.00,29.2,27.4,00.0,37.9,31.0,26.0,0000.0,0019.91,0007.38,0005.83
